This is the latest recevied weather packets stored in our database for station/object K7DC. If no packets are shown the sender has not sent any weather packets the latest 10 day(s).
| Time | Temp. | Humidity | Pressure | Rain* | Wind** | Luminosity | Snow |
|---|---|---|---|---|---|---|---|
| 1777153579 | 30.56° C | 14% | 1009.6 hPa | 0 mm | - | 397 W/m² | - |
| 1777153275 | 30.56° C | 14% | 1009.6 hPa | 0 mm | - | 395 W/m² | - |
| 1777152971 | 31.11° C | 13% | 1009.6 hPa | 0 mm | - | 446 W/m² | - |
| 1777152668 | 30.56° C | 14% | 1009.6 hPa | 0 mm | - | 513 W/m² | - |
| 1777152365 | 30.56° C | 14% | 1009.9 hPa | 0 mm | - | 497 W/m² | - |
| 1777152060 | 30° C | 14% | 1010.1 hPa | 0 mm | - | 464 W/m² | - |
| 1777151756 | 30.56° C | 14% | 1010 hPa | 0 mm | - | 431 W/m² | - |
| 1777151452 | 30.56° C | 14% | 1010.2 hPa | 0 mm | - | 546 W/m² | - |
| 1777151148 | 31.11° C | 14% | 1010 hPa | 0 mm | - | 589 W/m² | - |
| 1777150843 | 31.11° C | 13% | 1010 hPa | 0 mm | - | 434 W/m² | - |
| 1777150538 | 30.56° C | 12% | 1010.1 hPa | 0 mm | - | 693 W/m² | - |
| 1777150234 | 30.56° C | 13% | 1010.1 hPa | 0 mm | - | 449 W/m² | - |
| 1777149932 | 30.56° C | 13% | 1010.1 hPa | 0 mm | - | 585 W/m² | - |
| 1777149633 | 30.56° C | 13% | 1010.2 hPa | 0 mm | - | 465 W/m² | - |
| 1777149330 | 31.11° C | 13% | 1010.2 hPa | 0 mm | - | 470 W/m² | - |
| 1777149025 | 31.11° C | 13% | 1010.2 hPa | 0 mm | - | 471 W/m² | - |
| 1777148721 | 31.67° C | 13% | 1010.2 hPa | 0 mm | - | 451 W/m² | - |
| 1777148416 | 31.67° C | 12% | 1010.2 hPa | 0 mm | - | 573 W/m² | - |
| 1777148113 | 31.67° C | 12% | 1010 hPa | 0 mm | - | 623 W/m² | - |
| 1777147809 | 31.67° C | 13% | 1010.4 hPa | 0 mm | - | 568 W/m² | - |
| 1777147505 | 31.11° C | 13% | 1010.3 hPa | 0 mm | - | 641 W/m² | - |
| 1777147201 | 31.11° C | 13% | 1010.3 hPa | 0 mm | - | 564 W/m² | - |
| 1777146896 | 31.67° C | 13% | 1010.2 hPa | 0 mm | - | 571 W/m² | - |
| 1777146593 | 31.67° C | 12% | 1010.1 hPa | 0 mm | - | 683 W/m² | - |
| 1777146288 | 32.22° C | 12% | 1010.1 hPa | 0 mm | - | 701 W/m² | - |
* Rain latest hour (hover to see other rain measurements)
** Current wind speed in m/s (hover to see current wind gust speed)